CW4535 Weather Reports


time (UTC)temp
C
wind
direction
speed
KPH
gust
KPH
rain 1hr
cm
rain 24hr
cm
rain mn
cm
humidity
%
barometer
mb
20260505093003 18 70 3.2 19.3 0.00 0.00 0.00 84 1001.2
20260505092219 18 75 4.8 16.1 0.00 0.00 0.00 84 1001.3
20260505091003 18 73 1.6 12.9 0.00 0.00 0.00 83 1001.3
20260505090003 18 67 3.2 12.9 0.00 0.00 0.00 82 1001.3
20260505085003 19 77 1.6 11.3 0.00 0.00 0.00 81 1001.3
20260505084004 20 76 3.2 14.5 0.00 0.00 0.00 80 1001.3
20260505083003 20 74 1.6 12.9 0.00 0.00 0.00 80 1001.4
20260505082003 20 76 3.2 12.9 0.00 0.00 0.00 79 1001.4
20260505081220 20 74 3.2 12.9 0.00 0.00 0.00 79 1001.4
20260505080004 20 74 3.2 14.5 0.00 0.00 0.00 79 1001.5
20260505075003 20 74 4.8 19.3 0.00 0.00 0.00 79 1001.6
20260505074218 20 73 0.0 1.6 0.00 0.00 0.00 79 1001.7
20260505073003 20 78 3.2 12.9 0.00 0.00 0.00 80 1001.9
20260505072003 20 70 0.0 6.4 0.00 0.00 0.00 79 1002.3
20260505071221 20 75 0.0 9.7 0.00 0.00 0.00 79 1002.3
20260505070004 20 79 0.0 3.2 0.00 0.00 0.00 79 1002.3
20260505065218 20 0 0.0 0.0 0.00 0.00 0.00 78 1002.6
20260505064219 20 0 0.0 0.0 0.00 0.00 0.00 77 1002.6
20260505063003 20 0 0.0 0.0 0.00 0.00 0.00 77 1002.9
20260505062003 20 0 0.0 0.0 0.00 0.00 0.00 77 1002.9
20260505061003 20 0 0.0 0.0 0.00 0.00 0.00 76 1002.7
20260505060004 20 0 0.0 0.0 0.00 0.00 0.00 76 1002.4
20260505055003 20 0 0.0 0.0 0.00 0.00 0.00 75 1002.2
20260505054003 20 124 0.0 12.9 0.00 0.00 0.00 75 1002.0
20260505053003 20 152 1.6 4.8 0.00 0.00 0.00 75 1001.8
20260505052221 21 143 1.6 9.7 0.00 0.00 0.00 74 1001.9
20260505051003 21 138 3.2 12.9 0.00 0.00 0.00 74 1001.6
20260505041003 21 134 4.8 16.1 0.00 0.00 0.00 70 1001.9
20260505040004 21 130 3.2 14.5 0.00 0.00 0.00 69 1001.9
20260505035219 21 141 3.2 17.7 0.00 0.00 0.00 69 1001.9
20260505034003 21 139 3.2 9.7 0.00 0.00 0.00 69 1002.4
20260505033003 21 136 3.2 19.3 0.00 0.00 0.00 68 1002.4
20260505032003 21 128 3.2 17.7 0.00 0.00 0.00 67 1002.5
20260505031003 21 141 1.6 8.0 0.00 0.00 0.00 66 1002.5
20260505030003 22 135 4.8 17.7 0.00 0.00 0.00 65 1002.7
20260505025004 22 132 1.6 16.1 0.00 0.00 0.00 65 1002.8
20260505024003 22 132 1.6 20.9 0.00 0.00 0.00 65 1002.9
20260505023003 22 135 1.6 11.3 0.00 0.00 0.00 65 1003.0
20260505022003 22 139 3.2 12.9 0.00 0.00 0.00 64 1002.8
20260505021003 22 142 1.6 11.3 0.00 0.00 0.00 64 1002.6
20260505020220 22 145 3.2 11.3 0.00 0.00 0.00 64 1002.6
20260505015003 23 136 3.2 17.7 0.00 0.00 0.00 63 1002.6
20260505014003 23 133 3.2 19.3 0.00 0.00 0.00 64 1002.6
20260505013003 23 146 3.2 16.1 0.00 0.00 0.00 64 1002.6
20260505012003 23 129 1.6 12.9 0.00 0.00 0.00 63 1002.5
20260505011003 23 132 1.6 11.3 0.00 0.00 0.00 63 1002.5
20260505005004 24 143 1.6 11.3 0.00 0.00 0.00 62 1002.5
20260505004003 24 140 1.6 9.7 0.00 0.00 0.00 62 1002.6
20260505003003 24 152 1.6 14.5 0.00 0.00 0.00 61 1002.6
20260505002003 25 152 3.2 14.5 0.00 0.00 0.00 60 1002.6
20260505001003 25 151 4.8 20.9 0.00 0.00 0.00 60 1002.7
20260505000003 25 148 3.2 19.3 0.00 0.00 0.00 60 1002.9
20260504235003 25 158 3.2 19.3 0.00 0.00 0.00 59 1002.8
20260504234003 25 169 3.2 16.1 0.00 0.00 0.00 59 1002.7
20260504233003 25 156 3.2 16.1 0.00 0.00 0.00 59 1002.9
20260504232003 25 149 4.8 12.9 0.00 0.00 0.00 59 1002.9
20260504231221 25 156 4.8 19.3 0.00 0.00 0.00 58 1002.9
20260504230003 26 167 3.2 20.9 0.00 0.00 0.00 57 1002.9
20260504225218 26 158 3.2 14.5 0.00 0.00 0.00 57 1002.9
20260504224004 26 167 3.2 12.9 0.00 0.00 0.00 58 1003.0
20260504223003 26 165 3.2 14.5 0.00 0.00 0.00 57 1002.8
20260504222003 26 168 3.2 11.3 0.00 0.00 0.00 56 1002.8
20260504221004 26 152 3.2 16.1 0.00 0.00 0.00 57 1002.7
20260504220003 26 155 3.2 16.1 0.00 0.00 0.00 57 1002.8
20260504215003 26 162 3.2 14.5 0.00 0.00 0.00 57 1003.0
20260504214003 26 155 3.2 14.5 0.00 0.00 0.00 56 1003.0
20260504213003 27 166 4.8 24.1 0.00 0.00 0.00 56 1003.0
20260504212003 27 176 3.2 17.7 0.00 0.00 0.00 56 1003.2
20260504211004 27 175 4.8 17.7 0.00 0.00 0.00 54 1003.1
20260504210004 27 178 4.8 16.1 0.00 0.00 0.00 53 1003.2
20260504205003 27 148 4.8 25.7 0.00 0.00 0.00 53 1003.2
20260504204003 27 149 4.8 24.1 0.00 0.00 0.00 53 1003.4
20260504203003 27 182 6.4 20.9 0.00 0.00 0.00 53 1003.7
20260504202003 27 158 4.8 19.3 0.00 0.00 0.00 53 1003.8
20260504201003 27 153 4.8 22.5 0.00 0.00 0.00 53 1003.9
20260504200003 28 158 6.4 25.7 0.00 0.00 0.00 52 1004.1
20260504195003 27 162 6.4 30.6 0.00 0.00 0.00 52 1004.2
20260504194003 27 172 6.4 24.1 0.00 0.00 0.00 51 1004.3
20260504193003 27 155 6.4 29.0 0.00 0.00 0.00 53 1004.4
20260504192003 27 164 6.4 24.1 0.00 0.00 0.00 52 1004.4
20260504191003 28 148 6.4 22.5 0.00 0.00 0.00 52 1004.4
20260504190003 28 161 4.8 24.1 0.00 0.00 0.00 53 1004.4
20260504185003 28 167 6.4 22.5 0.00 0.00 0.00 52 1004.7
20260504184221 28 164 4.8 27.4 0.00 0.00 0.00 51 1004.7
20260504183003 28 175 6.4 30.6 0.00 0.00 0.00 52 1004.9
20260504182218 27 171 6.4 25.7 0.00 0.00 0.00 52 1004.9
20260504181003 27 161 6.4 22.5 0.00 0.00 0.00 52 1005.2
20260504180003 27 162 4.8 25.7 0.00 0.00 0.00 52 1005.2
20260504175003 27 151 6.4 25.7 0.00 0.00 0.00 52 1005.4
20260504174003 27 179 4.8 24.1 0.00 0.00 0.00 53 1005.6
20260504173003 27 168 6.4 20.9 0.00 0.00 0.00 51 1005.8
20260504172003 27 160 4.8 24.1 0.00 0.00 0.00 50 1005.8
20260504171003 27 171 6.4 22.5 0.00 0.00 0.00 51 1005.9
20260504170221 27 172 6.4 22.5 0.00 0.00 0.00 52 1005.8
20260504151003 23 165 4.8 19.3 0.00 0.00 0.00 54 1006.8
20260504141003 21 183 6.4 25.7 0.00 0.00 0.00 59 1007.4
20260504100220 18 169 4.8 16.1 0.00 0.00 0.00 59 1008.2